Location: Breitenfeld
(46.8500°N, 15.6333°E)
Time: 23:27:28
(UTC+00:00)

Transit 4B - Pass Details

Date: 29 May 2022
Orbit: 948 x 1097 km, 32.4° (Epoch: 03 July)

Event Time Altitude Azimuth Distance (km) Brightness Sun altitude
Exits shadow 02:07:28 11° 221° (SW) 2,680 10.1 -9.0°
Maximum altitude 02:12:04 22° 175° (S) 1,986 9.8 -8.4°
Drops below altitude 10° 02:16:49 10° 127° (SE) 2,683 10.9 -7.8°
Sets 02:20:01 0° 113° (ESE) 3,616 11.8 -7.4°
